Hourly Data Report for October 13, 2013

All times are specified in Local Standard Time (LST). Add 1 hour to adjust for Daylight Saving Time where and when it is observed.

ST LEONARD CS
NEW BRUNSWICK

47°09'28.050" N
67°49'55.014" W
245.00 m
810I001
71019
WIY

Download Data

Hourly Data (October 2013)
Hourly Data Report for October 13, 2013
Temp Definition
°C
Dew Point Temp Definition
°C
Rel Hum Definition
%
Wind Dir Definition
10's deg

Wind Spd Definition
km/h
Visibility Definition
km
Stn Press Definition
kPa
Hmdx Definition


Wind Chill Definition


Weather Definition


TIME
00:00 2.3 1.7 96   0   100.01     LegendNANA
01:00 1.3 1.0 98   0   100.03     LegendNANA
02:00 0.8 0.6 99   0   100.04     LegendNANA
03:00 0.0 -0.3 98   0   100.06     LegendNANA
04:00 -0.1 -0.3 99   0   100.07     LegendNANA
05:00 -0.8 -1.0 99 1 2   100.07   -1 LegendNANA
06:00 -1.0 -1.1 99 1 2   100.07   -2 LegendNANA
07:00 -1.3 -1.4 99 2 2   100.09   -2 LegendNANA
08:00 0.4 -0.7 92 34 4   100.12     LegendNANA
09:00 3.1 1.4 89 33 2   100.13     LegendNANA
10:00 7.3 3.1 75   0   100.13     LegendNANA
11:00 10.6 5.0 68   0   100.10     LegendNANA
12:00 12.8 6.3 65 25 4   100.06     LegendNANA
13:00 13.9 7.0 63 21 4   99.98     LegendNANA
14:00 14.5 7.0 61 20 2   99.94     LegendNANA
15:00 15.0 6.6 57 16 7   99.88     LegendNANA
16:00 15.1 6.4 56 18 6   99.82     LegendNANA
17:00 14.0 6.8 62 19 7   99.80     LegendNANA
18:00 11.7 6.2 69 17 4   99.79     LegendNANA
19:00 9.6 5.5 76 15 7   99.76     LegendNANA
20:00 6.1 4.1 87 13 4   99.75     LegendNANA
21:00 5.9 3.7 86 13 7   99.76     LegendNANA
22:00 8.5 4.8 78 16 7   99.73     LegendNANA
23:00 7.0 4.4 83 15 6   99.70     LegendNANA

Notes on Data Quality.

Legend

  • E = Estimated
  • M = Missing
  • NA = Not Available
  • ‡ = Partner data that is not subject to review by the National Climate Archives
Date modified: